Forest fire From: 18-06-2018 11:00 Until: 19-06-2018 10:14 warning for: Forest fire Level: Yellow info button
suomi:
Metsäpalovaroitus on voimassa.

svenska:
Varning för skogsbrand gäller.

english:
A forest fire warning is in force. 


Thunder radar more information blitzortung!


Löydät sääaseman tiedot myös:

European Weather Network

Finland Weather Exchange

Weather Underground

AWEKAS



Weather Underground säähistoriasivu

Päivittäin yhteenveto Tammikuu 11, 2017 Yksiköt:  Englantilaiset    Metriset   Molemmat
« Edellinen Päivä
Seuraava Päivä »
Päivittäin Viikoittain Kuukausittain Vuosittain Mukautettu
  Korkea: Matala: Keskiarvo:
Lämpötila: TemperatureC °F -1.6 °F 0.8 °F
Kastepiste: DewpointC °F -5.0 °F -1 °F
Kosteus: Humidity % 76 % 87 %
Tuulen nopeus: WindSpeedKMH mph 0.0 mph 0 mph
Tuulenpuuska: WindSpeedGustKMH mph - -
Tuuli:- - North
Ilmanpaine: PressurehPa in 984.3 in -
Sade: 0.0 in    
Historical Graphs
 
 
Taulukkotiedot Tammikuu 11, 2017
Aika Lämpötila Kastepiste Ilmanpaine Tuuli Tuulen nopeus Tuulenpuuska Kosteus Sademäärä (tunneittain)
TemperatureC °F DewpointC °F PressurehPa in Calm     Humidity % HourlyPrecipMM in
00:00 0.9 °F 0.0 °F 1001.6 in Calm     94 % 0.0 in
00:15 0.8 °F -0.2 °F 1001.6 in Calm     93 % 0.0 in
00:30 0.8 °F -0.2 °F 1001.6 in Calm     93 % 0.0 in
00:45 0.9 °F -0.3 °F 1001.2 in Calm     92 % 0.0 in
01:00 0.9 °F -0.2 °F 1000.9 in Calm     92 % 0.0 in
01:15 0.9 °F -0.2 °F 1000.6 in Calm     92 % 0.0 in
01:30 1.0 °F -0.2 °F 1000.6 in Calm     92 % 0.0 in
01:45 1.0 °F -0.2 °F 1000.2 in Calm     92 % 0.0 in
02:00 1.1 °F -0.1 °F 999.9 in Calm     92 % 0.0 in
02:15 1.2 °F -0.1 °F 999.9 in Calm     91 % 0.0 in
02:30 1.2 °F -0.1 °F 999.5 in Calm     91 % 0.0 in
02:45 0.9 °F -0.1 °F 999.2 in Calm     93 % 0.0 in
03:00 0.7 °F -0.3 °F 998.5 in Calm     93 % 0.0 in
03:15 0.7 °F -0.3 °F 998.5 in Calm     93 % 0.0 in
03:30 0.8 °F -0.4 °F 998.5 in Calm     92 % 0.0 in
03:45 0.9 °F -0.4 °F 998.5 in Calm     91 % 0.0 in
04:00 0.9 °F -0.5 °F 998.2 in Calm     90 % 0.0 in
04:15 1.1 °F -0.6 °F 997.9 in Calm     89 % 0.0 in
04:30 1.1 °F -0.6 °F 997.9 in Calm     89 % 0.0 in
04:45 0.9 °F -0.5 °F 997.9 in Calm     90 % 0.0 in
05:00 0.9 °F -0.4 °F 997.5 in Calm     91 % 0.0 in
05:15 0.9 °F -0.4 °F 997.5 in Calm     91 % 0.0 in
05:30 0.8 °F -0.3 °F 997.2 in Calm     92 % 0.0 in
05:45 0.8 °F -0.2 °F 996.8 in Calm     93 % 0.0 in
06:00 0.8 °F -0.3 °F 996.5 in Calm     92 % 0.0 in
06:15 0.9 °F -0.3 °F 996.5 in Calm     92 % 0.0 in
06:30 0.9 °F -0.2 °F 996.2 in Calm     92 % 0.0 in
06:45 0.9 °F -0.2 °F 995.8 in Calm     92 % 0.0 in
07:00 1.0 °F -0.2 °F 995.5 in Calm     92 % 0.0 in
07:15 1.0 °F -0.2 °F 995.1 in Calm     92 % 0.0 in
07:30 1.1 °F -0.1 °F 994.8 in Calm     92 % 0.0 in
07:45 1.1 °F -0.1 °F 994.8 in Calm     92 % 0.0 in
08:00 1.2 °F 0.2 °F 994.8 in Calm     93 % 0.0 in
08:15 1.3 °F 0.2 °F 994.5 in Calm     92 % 0.0 in
08:30 1.4 °F 0.2 °F 994.5 in Calm     92 % 0.0 in
08:45 1.4 °F 0.4 °F 994.1 in Calm     93 % 0.0 in
09:00 1.4 °F 0.4 °F 994.1 in Calm     93 % 0.0 in
09:15 1.5 °F 0.5 °F 993.8 in Calm     93 % 0.0 in
09:30 1.5 °F 0.3 °F 993.8 in Calm     92 % 0.0 in
09:45 1.5 °F 0.3 °F 993.5 in Calm     92 % 0.0 in
10:00 1.5 °F 0.2 °F 993.5 in Calm     91 % 0.0 in
10:15 1.6 °F 0.1 °F 993.1 in Calm     90 % 0.0 in
10:30 1.5 °F 0.2 °F 993.1 in Calm     91 % 0.0 in
10:45 1.5 °F 0.0 °F 992.8 in Calm     90 % 0.0 in
11:00 1.6 °F -0.1 °F 992.8 in Calm     89 % 0.0 in
11:15 1.4 °F -0.1 °F 992.4 in Calm     90 % 0.0 in
11:30 1.5 °F -0.1 °F 992.1 in Calm     89 % 0.0 in
11:45 1.6 °F -0.1 °F 991.8 in Calm     89 % 0.0 in
12:00 1.5 °F -0.1 °F 991.4 in Calm     89 % 0.0 in
12:15 1.6 °F -0.2 °F 991.4 in Calm     88 % 0.0 in
12:30 1.6 °F 0.0 °F 991.4 in Calm     89 % 0.0 in
12:45 1.3 °F 0.0 °F 991.4 in Calm     91 % 0.0 in
13:00 1.1 °F 0.1 °F 991.1 in Calm     93 % 0.0 in
13:15 0.9 °F -0.1 °F 991.1 in Calm     93 % 0.0 in
13:30 0.8 °F 0.0 °F 991.1 in Calm     94 % 0.0 in
13:45 0.9 °F -0.1 °F 990.7 in Calm     93 % 0.0 in
14:00 0.9 °F -0.3 °F 990.7 in Calm     92 % 0.0 in
14:15 0.8 °F -0.3 °F 990.7 in Calm     92 % 0.0 in
14:30 0.8 °F -0.6 °F 990.4 in Calm     90 % 0.0 in
14:45 0.9 °F -0.7 °F 990.4 in Calm     89 % 0.0 in
15:00 0.9 °F -0.7 °F 990.1 in Calm     89 % 0.0 in
15:15 1.0 °F -0.8 °F 990.1 in Calm     88 % 0.0 in
15:30 1.0 °F -0.8 °F 989.7 in Calm     88 % 0.0 in
15:45 1.1 °F -1.0 °F 989.4 in Calm     86 % 0.0 in
16:00 1.1 °F -1.0 °F 989.1 in Calm     86 % 0.0 in
16:15 1.1 °F -1.2 °F 989.1 in Calm     85 % 0.0 in
16:30 1.1 °F -1.3 °F 988.7 in Calm     84 % 0.0 in
16:45 1.1 °F -1.1 °F 988.4 in Calm     85 % 0.0 in
17:00 1.1 °F -1.3 °F 988.4 in Calm     84 % 0.0 in
17:15 1.1 °F -1.3 °F 988.0 in Calm     84 % 0.0 in
17:30 1.1 °F -1.5 °F 988.0 in Calm     83 % 0.0 in
17:45 1.1 °F -1.5 °F 987.7 in Calm     83 % 0.0 in
18:00 1.2 °F -1.6 °F 987.4 in Calm     82 % 0.0 in
18:15 1.2 °F -1.6 °F 987.0 in Calm     82 % 0.0 in
18:30 1.2 °F -1.7 °F 987.0 in Calm     81 % 0.0 in
18:45 1.3 °F -1.8 °F 986.7 in Calm     80 % 0.0 in
19:00 1.2 °F -1.8 °F 986.7 in Calm     80 % 0.0 in
19:15 1.1 °F -2.0 °F 986.3 in Calm     80 % 0.0 in
19:30 1.0 °F -1.9 °F 986.0 in Calm     81 % 0.0 in
19:45 0.7 °F -2.1 °F 986.0 in Calm     82 % 0.0 in
20:00 0.6 °F -2.2 °F 985.7 in Calm     82 % 0.0 in
20:15 0.5 °F -2.4 °F 985.7 in Calm     81 % 0.0 in
20:30 0.6 °F -2.5 °F 985.3 in Calm     80 % 0.0 in
20:45 0.4 °F -2.6 °F 985.3 in Calm     80 % 0.0 in
21:00 0.4 °F -2.8 °F 985.7 in Calm     79 % 0.0 in
21:15 0.2 °F -3.2 °F 985.3 in Calm     78 % 0.0 in
21:30 0.1 °F -3.3 °F 985.3 in Calm     78 % 0.0 in
21:45 -0.2 °F -3.7 °F 985.3 in Calm     77 % 0.0 in
22:00 -0.6 °F -4.1 °F 985.3 in Calm     77 % 0.0 in
22:15 -0.9 °F -4.6 °F 985.3 in Calm     76 % 0.0 in
22:30 -1.2 °F -4.9 °F 985.0 in Calm     76 % 0.0 in
22:45 -1.3 °F -4.8 °F 984.6 in Calm     77 % 0.0 in
23:00 -1.4 °F -5.0 °F 984.6 in Calm     77 % 0.0 in
23:15 -1.5 °F -5.0 °F 984.6 in Calm     77 % 0.0 in
23:30 -1.6 °F -4.9 °F 984.3 in Calm     78 % 0.0 in
23:45 -1.6 °F -4.9 °F 984.3 in Calm     78 % 0.0 in
Esan sääasema
Terveisin Weather Underground - 2.75 mb

Alkuperäinen skripti  Jim McMurry - jmcmurry@mwt.net Sovitettu myös templatelle  Wim van der Kuil - Leuven-Template.eu

Laitteet joita käytämme:

Sääasema
Davis VP2

Sääasemaohjelma
Cumulus

Sääaseman tietokone
Asus EeePC

Palveluntarjoaja
Suncomet

Davis VP2

Cumulus

Asus EeePC

Suncomet